Marathon, FL (33050)

7:48 PM EDT on July 22, 2017 (GMT -0400)
Little Venice House Rooftop | | Change Station

Elev 8 ft 24.73 °N, 81.03 °W | Updated 5 seconds ago

Partly Cloudy
Partly Cloudy
87.2 °F
Feels Like 98 °F
N
0.0
Wind Variable Wind from East
Gusts 3.0 mph

Today
High -- | Low -- °F
--% Chance of Precip.
Yesterday
High -- | Low -- °F
Precip. -- in
Pressure 30.03 in
Visibility 10.0 miles
Clouds Few 2500 ft
Few 12000 ft
Mostly Cloudy 22000 ft
Heat Index 98 °F
Dew Point 76 °F
Humidity 69%
Rainfall 0.00 in
Snow Depth Not available.
6:47 AM 8:13 PM
Waning Crescent, 0% visible
METAR KNQX 222253Z 09005KT 10SM FEW025 FEW120 BKN220 31/25 A3003 RMK AO2 SLP168 T03060250 $
Pressure 30.03 in
Visibility 10.0 miles
Clouds Few 2500 ft
Few 12000 ft
Mostly Cloudy 22000 ft
Heat Index 98 °F
Dew Point 76 °F
Humidity 69%
Rainfall 0.00 in
Snow Depth Not available.
6:47 AM 8:13 PM
Waning Crescent, 0% visible
METAR KNQX 222253Z 09005KT 10SM FEW025 FEW120 BKN220 31/25 A3003 RMK AO2 SLP168 T03060250 $

Get Severe Weather Alerts

Thanks for signing up!

Be on the lookout for a verification email in your inbox.

You'll start receiving the daily forecast at 6 AM.

×

10-Day Weather Forecast

Almanac

Astronomy

Jul. 22, 2017 Rise Set
Actual Time
Civil Twilight
Nautical Twilight
Astronomical Twilight
Moon
Length of Visible Light
Length of Day
Tomorrow will be .
, % of the Moon is Illuminated

Today's Extremes

State Highs State Lows

Community

WunderPhotos

Category 6

Welcome to Category 6. This is the collective home for Weather Underground's featured writeups by Dr. Jeff Masters (right), Bob Henson (left), Chris Burt, and other regular contributors.

Nearby

Air Quality

  Air Quality AQ Index Pollutant
Not available.

Snow Depth

Station Depth Elevation

Earthquake Activity

City Distance Mag. Time & Date
Minimum magnitude displayed is 2.5.

Coastal Water Temperatures

Place Temperature

Stations

Nearby Weather Stations

Station Location Temp. Windchill Dew Point Humidity Wind Precip. Elev Updated Type
                   

Watches & Warnings

There are currently no watches in effect.